Home > Weather > Amsterdam > Past weeks

Flag for Netherlands Past Weather in Amsterdam, Netherlands — Yesterday and Last 2 Weeks

Now
50 °F

Partly cloudy.


Feels Like: 48 °F
Forecast: 44 / 64 °F
Wind: 5 mph from Northwest

Location: Amsterdam Schiphol Airport

Current Time: May 25, 2016 at 3:31:07 AM

Latest Report: May 25, 2016 at 2:55 AM


Visibility: 6 mi

Pressure: 29.98 "Hg

Humidity: 100%

Dew Point: 50 °F

Location of AmsterdamLocation

Past Weather in Amsterdam — Graph

°F

Amsterdam Temperature Yesterday

Maximum temperature yesterday: 57 °F (at 11:55 AM)
Minimum temperature yesterday: 50 °F (at 12:25 AM)
Average temperature yesterday: 52 °F

High & Low Weather Summary for the Past Weeks

 TemperatureHumidityPressure
High77 °F (May 11, 2:25 PM)100% (May 18, 11:25 PM)30.15 "Hg (May 18, 11:25 PM)
Low41 °F (May 16, 1:25 AM)34% (May 12, 4:55 PM)29.50 "Hg (May 12, 5:25 PM)
Average57 °F74%29.87 "Hg
* Reported May 10 2:25 AM — May 25 2:25 AM, Amsterdam, Weather by CustomWeather, © 2016

Note: Actual official high and low records may vary slightly from our data, if they occured in-between our weather recording intervals... More about our weather records

Advertising

Amsterdam Weather History for the Previous 24 Hours

Scroll right to see more
 ConditionsComfort  
Time TempWeatherWind HumidityBarometerVisibility
2:25 AM
Wed, May 25
50 °FPartly cloudy.5 mph100%30.01 "Hg6 mi
1:55 AM50 °FPartly cloudy.2 mph100%30.01 "Hg3 mi
1:25 AM50 °FPartly cloudy.5 mph94%30.01 "Hg4 mi
12:55 AM50 °FPassing clouds.6 mph94%30.01 "HgN/A
12:25 AM50 °FPartly cloudy.6 mph94%30.01 "HgN/A
11:55 PM
Tue, May 24
50 °FPartly cloudy.7 mph94%30.01 "Hg6 mi
11:25 PM50 °FPassing clouds.8 mph94%30.01 "HgN/A
10:55 PM50 °FPassing clouds.8 mph94%30.04 "Hg4 mi
10:25 PM50 °FDrizzle. Partly sunny.9 mph88%30.04 "HgN/A
9:55 PM50 °FDrizzle. Partly sunny.7 mph88%30.04 "HgN/A
9:25 PM50 °FPartly sunny.10 mph82%30.04 "HgN/A
8:55 PM52 °FPartly sunny.10 mph72%30.04 "HgN/A
8:25 PM52 °FPartly sunny.10 mph72%30.04 "HgN/A
7:55 PM52 °FPartly sunny.14 mph72%30.04 "HgN/A
7:25 PM52 °FPartly sunny.13 mph72%30.04 "HgN/A
6:55 PM52 °FPartly sunny.12 mph72%30.04 "HgN/A
6:25 PM52 °FScattered clouds.12 mph72%30.04 "HgN/A
5:55 PM54 °FScattered clouds.14 mph63%30.04 "HgN/A
5:25 PM52 °FPartly sunny.15 mph72%30.04 "HgN/A
4:55 PM54 °FPartly sunny.14 mph67%30.04 "HgN/A
4:25 PM54 °FPartly sunny.15 mph67%30.07 "HgN/A
3:55 PM54 °FScattered clouds.15 mph72%30.04 "HgN/A
3:25 PM54 °FPassing clouds.16 mph72%30.07 "HgN/A
2:55 PM57 °FScattered clouds.15 mph67%30.07 "HgN/A
2:25 PM55 °FScattered clouds.14 mph72%30.07 "HgN/A
1:55 PM55 °FPassing clouds.14 mph72%30.07 "HgN/A
1:25 PM57 °FPassing clouds.15 mph63%30.07 "HgN/A
12:55 PM55 °FScattered clouds.14 mph67%30.07 "HgN/A
12:25 PM55 °FScattered clouds.16 mph67%30.07 "HgN/A
11:55 AM57 °FScattered clouds.15 mph67%30.07 "HgN/A
11:25 AM55 °FScattered clouds.15 mph67%30.07 "HgN/A
10:55 AM55 °FScattered clouds.14 mph72%30.07 "HgN/A
10:25 AM55 °FPartly sunny.13 mph72%30.07 "HgN/A
9:55 AM54 °FPartly sunny.14 mph72%30.07 "HgN/A
9:25 AM52 °FPartly sunny.17 mph77%30.07 "HgN/A
8:55 AM52 °FPartly sunny.13 mph77%30.07 "HgN/A
8:25 AM52 °FPartly sunny.12 mph77%30.07 "HgN/A
7:55 AM52 °FPartly sunny.9 mph77%30.07 "HgN/A
7:25 AM52 °FPartly sunny.9 mph77%30.07 "HgN/A
6:55 AM50 °FPartly sunny.7 mph82%30.07 "HgN/A
6:25 AM50 °FPassing clouds.9 mph76%30.07 "HgN/A
5:55 AM50 °FPassing clouds.8 mph82%30.07 "HgN/A
5:25 AM50 °FPassing clouds.12 mph82%30.07 "HgN/A
4:55 AM50 °FPassing clouds.12 mph82%30.07 "HgN/A
4:25 AM50 °FPassing clouds.10 mph82%30.07 "HgN/A
3:55 AM50 °FPassing clouds.9 mph82%30.07 "HgN/A
3:25 AM50 °FPassing clouds.7 mph88%30.07 "HgN/A
Weather by CustomWeather, © 2016

See weather overviewHow to use our weather pages